[[{"header":{"parameterUnit":"m.s-1","parameterCategory":2,"la1":30.2991,"la2":30.254,"lo1":-89.0895,"lo2":-89.0444,"dy":0.0017,"dx":0.0017,"nx":28,"ny":28,"refTime":"2023-07-26T21:00:00:Z","depth":"0","parameterNumber":2,"parameterNumberName":"U-component_of_CURRENTS"},"data":[0,0,0,0,0,0,0,0,0,0,0,0,0,0,0,0,0,0,0,0,0,0,0,0,0,0,0,0,0,0,0,0,0,0,0,0,0,0,0,0,0,0,0,0,0,0,0,0,0,0,0,0,0,0,0,0,0,0,0.5735,0.5736,0,0.5777,0.5777,0.5778,0.5753,0.5752,0.5751,0.575,0.5777,0.5779,0.578,0,0,0,0,0,0,0,0,0,0,0,0,0,0.5648,0.565,0.5735,0.5736,0.5736,0.5777,0.5777,0.5778,0.5754,0.5752,0.5751,0.575,0.5777,0.5779,0.5781,0,0,0,0,0,0,0,0,0,0,0,0,0,0.5686,0.565,0.5735,0.5731,0.5731,0.5777,0.5777,0.5778,0.5754,0.5752,0.5751,0.5749,0.5776,0.5778,0.5781,0.5826,0,0,0.5788,0.5789,0,0,0,0,0,0,0,0,0.5683,0.5688,0.5731,0.5731,0.5731,0.576,0.5757,0.5794,0.5754,0.5743,0.575,0.5749,0.5773,0.5775,0.5784,0.5827,0.5828,0.5789,0.579,0.5791,0.5792,0,0,0,0,0,0,0,0.5681,0.5687,0.5749,0.5732,0.5732,0.5732,0.5735,0.5764,0.5764,0.5744,0.5743,0.5751,0.5772,0.5781,0.5784,0.5829,0.5789,0.5791,0.5792,0.5793,0.5925,0.5927,0,0,0,0,0,0,0.5681,0.5684,0.5748,0.5751,0.5706,0.5735,0.5738,0.5751,0.5764,0.5765,0.5752,0.575,0.5778,0.5781,0.5785,0.5801,0.5791,0.5793,0.5795,0.5923,0.5926,0.5928,0,0,0,0,0,0,0.5679,0.5687,0.5746,0.572,0.5728,0.5738,0.5752,0.5752,0.5759,0.5771,0.5771,0.5758,0.5777,0.5782,0.583,0.5803,0.5795,0.5797,0.5921,0.5924,0.5927,0.5857,0,0,0,0,0,0,0.5677,0.5686,0.5699,0.572,0.5729,0.5761,0.5754,0.5754,0.5768,0.5765,0.5776,0.5777,0.5776,0.5827,0.5833,0.5806,0.5799,0.5918,0.5922,0.5926,0.5857,0.5858,0.5858,0,0,0,0,0,0.5673,0.5674,0.57,0.5708,0.5746,0.5761,0.5765,0.5766,0.5769,0.5768,0.5801,0.5776,0.5854,0.5831,0.5837,0.5811,0.5916,0.5921,0.5926,0.5857,0.5857,0.5858,0,0,0,0,0,0,0.5644,0.5673,0.5701,0.5714,0.574,0.5757,0.5753,0.5773,0.5798,0.5795,0.5812,0.5817,0.5848,0.5865,0.5839,0.587,0.5878,0.5884,0.5824,0.5824,0.5825,0.5818,0.5801,0,0,0,0,0,0.5651,0.5652,0.5696,0.5706,0.5716,0.5746,0.5756,0.5762,0.5787,0.5795,0.5812,0.5842,0.5876,0.5877,0.5912,0.5931,0.5978,0.5923,0.5923,0.5923,0.5928,0.603,0.6039,0.5943,0.5943,0.5943,0,0,0.5641,0.566,0.5661,0.57,0.5715,0.5725,0.5745,0.575,0.5765,0.5797,0.5817,0.5852,0.5892,0.591,0.5923,0.5912,0.597,0.5929,0.5927,0.5933,0.6036,0.6045,0.6053,0.5946,0.5945,0.5945,0,0,0.5607,0.5641,0.5631,0.5655,0.5685,0.5703,0.5709,0.5739,0.5754,0.5798,0.5825,0.586,0.59,0.5917,0.5934,0.5972,0.5984,0.5969,0.5938,0.6037,0.6044,0.6052,0.6085,0.6096,0.5949,0.5949,0.5949,0,0.5593,0.5603,0.5631,0.5637,0.5649,0.5693,0.5693,0.5723,0.5768,0.5778,0.5795,0.5875,0.5904,0.593,0.5939,0.5964,0.601,0.5916,0.6033,0.6042,0.6051,0.6084,0.6097,0.5946,0.5947,0.5947,0.5947,0,0.5561,0.5578,0.5569,0.5592,0.561,0.5612,0.5662,0.5681,0.5711,0.5736,0.5783,0.5849,0.5887,0.5897,0.5927,0.5986,0.5993,0.6031,0.6017,0.6056,0.6088,0.6103,0.5942,0.5943,0.5944,0.5945,0,0,0.5495,0.5536,0.5536,0.5539,0.5588,0.5585,0.5617,0.5643,0.5643,0.5706,0.5721,0.5796,0.5826,0.5855,0.5894,0.5969,0.606,0.6018,0.6024,0.6023,0.6239,0.6105,0.6108,0.6122,0.6126,0.6128,0.622,0,0.546,0.5456,0.5492,0.5482,0.548,0.5531,0.5545,0.5576,0.5617,0.5643,0.5719,0.5761,0.5811,0.5832,0.5916,0.6042,0.6105,0.6029,0.6227,0.6231,0.6087,0.6124,0.5827,0.5874,0.6235,0.6238,0.6239,0,0.5413,0.5419,0.5406,0.5418,0.5418,0.5416,0.5428,0.5459,0.5516,0.5552,0.5612,0.5681,0.5787,0.5845,0.6056,0.6008,0.6121,0.6213,0.622,0.6133,0.6127,0.5907,0.5888,0.5671,0.6263,0.6261,0.6259,0,0.5331,0.535,0.533,0.5339,0.5364,0.5354,0.5369,0.5411,0.5426,0.551,0.5524,0.5657,0.5733,0.5915,0.6102,0.6099,0.6336,0.6355,0.6327,0.6317,0.6122,0.6088,0.5894,0.6517,0.6517,0.6517,0.6517,0,0.5272,0.5253,0.5282,0.5268,0.5229,0.5277,0.5242,0.5287,0.5337,0.5338,0.5474,0.5516,0.577,0.5922,0.6095,0.6241,0.6338,0.6324,0.6344,0.6084,0.6048,0.59,0.5839,0.652,0.652,0.6519,0.6518,0,0.5183,0.5209,0.518,0.5191,0.5187,0.516,0.5166,0.5143,0.5217,0.5236,0.527,0.5439,0.5635,0.585,0.6141,0.6202,0.6187,0.6412,0.605,0.6024,0.5738,0.5687,0.5477,0.5342,0.6363,0.6361,0.6359,0,0.5134,0.5109,0.5108,0.5083,0.5081,0.5053,0.5022,0.508,0.5071,0.5181,0.5182,0.537,0.5468,0.5788,0.5973,0.6192,0.6077,0.6005,0.5945,0.5665,0.5626,0.5495,0.5389,0.5652,0.5644,0.5638,0.5633,0,0.5032,0.5032,0.5013,0.4966,0.4925,0.4875,0.4851,0.4824,0.4893,0.492,0.4983,0.5078,0.5354,0.5433,0.5695,0.5809,0.5642,0.5876,0.5701,0.5134,0.4869,0.4765,0.562,0.5576,0.5581,0.5586,0.5589,0.5591,0.4941,0.4907,0.4874,0.4819,0.4768,0.4674,0.4574,0.4576,0.4539,0.4546,0.4757,0.4837,0.4959,0.5278,0.5341,0.5165,0.5302,0.502,0.5008,0.4923,0.4681,0.5371,0.5284,0.5288,0.5291,0.5294,0.5296,0,0.4799,0.4775,0.4723,0.4615,0.4495,0.4529,0.4421,0.4297,0.4195,0.4348,0.4407,0.4463,0.4467,0.4558,0.4481,0.4328,0.4218,0.4183,0.3912,0.3882,0.4576,0.4428,0.4008,0.4008,0.4008,0.4009,0.4009,0.4009,0.4716,0.4621,0.4598,0.4364,0.4287,0.404,0.395,0.3827,0.3855,0.3798,0.3834,0.3963,0.4014,0.3913,0.3677,0.3588,0.3355,0.3184,0.3277,0.3716,0.3792,0.3864,0.3706,0.3142,0.3141,0.2403,0.2397,0.2392]},{"header":{"parameterUnit":"m.s-1","parameterCategory":2,"la1":30.2991,"la2":30.254,"lo1":-89.0895,"lo2":-89.0444,"dy":0.0017,"dx":0.0017,"nx":28,"ny":28,"refTime":"2023-07-26T21:00:00:Z","depth":"0","parameterNumber":3,"parameterNumberName":"V-component_of_CURRENTS"},"data":[0,0,0,0,0,0,0,0,0,0,0,0,0,0,0,0,0,0,0,0,0,0,0,0,0,0,0,0,0,0,0,0,0,0,0,0,0,0,0,0,0,0,0,0,0,0,0,0,0,0,0,0,0,0,0,0,0,0,0.1178,0.1179,0,0.1185,0.1184,0.1184,0.1145,0.1145,0.1144,0.1144,0.1058,0.1056,0.1054,0,0,0,0,0,0,0,0,0,0,0,0,0,0.0973,0.0977,0.1178,0.1179,0.118,0.1185,0.1184,0.1184,0.1145,0.1145,0.1144,0.1143,0.1059,0.1056,0.1054,0,0,0,0,0,0,0,0,0,0,0,0,0,0.1023,0.0979,0.1178,0.1166,0.1166,0.1185,0.1184,0.1184,0.1145,0.1145,0.1144,0.1143,0.1059,0.1057,0.1054,0.105,0,0,0.1045,0.1044,0,0,0,0,0,0,0,0,0.102,0.1029,0.1167,0.1167,0.1167,0.117,0.1081,0.1137,0.1145,0.1146,0.1144,0.1143,0.1092,0.1086,0.108,0.1046,0.1043,0.1045,0.1043,0.1042,0.1041,0,0,0,0,0,0,0,0.1017,0.1028,0.1174,0.1168,0.1168,0.1106,0.1113,0.109,0.1115,0.1146,0.1144,0.1157,0.109,0.1083,0.1078,0.1041,0.1045,0.1043,0.1041,0.104,0.1077,0.1079,0,0,0,0,0,0,0.1041,0.1026,0.1174,0.1175,0.1098,0.1112,0.1119,0.1164,0.1118,0.1113,0.1157,0.1155,0.1088,0.1081,0.1075,0.1129,0.1042,0.104,0.1038,0.1074,0.1077,0.108,0,0,0,0,0,0,0.1037,0.1055,0.1174,0.1103,0.1115,0.1118,0.1167,0.1164,0.1161,0.1129,0.112,0.1158,0.1087,0.1079,0.1074,0.1123,0.1038,0.1036,0.1071,0.1075,0.1079,0.1199,0,0,0,0,0,0,0.1031,0.1054,0.1089,0.1107,0.112,0.1189,0.1168,0.1165,0.1173,0.117,0.1127,0.1118,0.1086,0.1079,0.1071,0.1118,0.1034,0.1068,0.1073,0.1078,0.1191,0.1206,0.1219,0,0,0,0,0,0.1024,0.1084,0.1091,0.1108,0.1172,0.119,0.119,0.1183,0.1174,0.1176,0.116,0.112,0.1106,0.1078,0.1069,0.1116,0.1065,0.1071,0.1077,0.1185,0.1203,0.1219,0,0,0,0,0,0,0.1023,0.1087,0.1095,0.1175,0.1182,0.1186,0.1198,0.1191,0.118,0.1177,0.1138,0.1129,0.1152,0.1117,0.1087,0.1145,0.1085,0.1089,0.1171,0.1187,0.1201,0.1255,0.1031,0,0,0,0,0,0.1041,0.1102,0.1129,0.1194,0.1198,0.1196,0.1203,0.1198,0.1197,0.1191,0.1168,0.1158,0.1171,0.1163,0.1156,0.1171,0.1161,0.1202,0.1216,0.1228,0.1269,0.1322,0.1344,0.11,0.11,0.11,0,0,0.1065,0.1106,0.1144,0.1197,0.1201,0.1225,0.1197,0.1215,0.1248,0.1183,0.1212,0.12,0.1187,0.1219,0.1227,0.1192,0.1281,0.1235,0.1245,0.1281,0.133,0.1354,0.1375,0.1104,0.1103,0.1102,0,0,0.1117,0.117,0.1214,0.1226,0.1245,0.1252,0.1261,0.1265,0.1274,0.1293,0.1283,0.1317,0.1286,0.1324,0.1332,0.1421,0.1357,0.1399,0.1505,0.1555,0.1576,0.1594,0.1562,0.1576,0.14,0.1401,0.1401,0,0.1127,0.1208,0.1225,0.1253,0.1284,0.127,0.1308,0.1321,0.1328,0.1364,0.1315,0.1382,0.1358,0.1463,0.1493,0.1458,0.1436,0.1438,0.1574,0.1593,0.161,0.1572,0.1587,0.1407,0.1406,0.1406,0.1405,0,0.1197,0.1253,0.1278,0.1328,0.1356,0.1388,0.1413,0.1443,0.1449,0.1469,0.1554,0.1545,0.1595,0.1593,0.1562,0.1687,0.1612,0.1588,0.1532,0.1642,0.1594,0.1607,0.1416,0.1414,0.1412,0.1411,0,0,0.1227,0.1311,0.1316,0.1358,0.1401,0.1438,0.1509,0.1582,0.1659,0.1661,0.1774,0.1808,0.1811,0.1826,0.181,0.1852,0.1924,0.1769,0.1769,0.1737,0.197,0.1821,0.1819,0.1912,0.1916,0.192,0.1869,0,0.1263,0.1348,0.1386,0.1476,0.152,0.1559,0.164,0.1708,0.1754,0.1851,0.1892,0.1971,0.1897,0.1934,0.1973,0.1963,0.1973,0.1937,0.1871,0.1868,0.1725,0.1837,0.1708,0.1646,0.1881,0.1884,0.1885,0,0.1298,0.1361,0.1453,0.1577,0.1603,0.1662,0.1813,0.1881,0.201,0.205,0.2141,0.2156,0.226,0.2164,0.2203,0.2174,0.2088,0.2048,0.2044,0.1888,0.1748,0.1586,0.166,0.1379,0.1905,0.1903,0.1902,0,0.1304,0.1409,0.1499,0.1532,0.1661,0.1735,0.1815,0.1943,0.2044,0.2189,0.2275,0.2363,0.2428,0.2389,0.2289,0.2255,0.2287,0.2226,0.2002,0.1985,0.1859,0.1826,0.1666,0.2242,0.2242,0.2242,0.2242,0,0.1333,0.1401,0.1511,0.156,0.1696,0.1772,0.1932,0.2022,0.2186,0.2349,0.2382,0.2524,0.2491,0.2492,0.2367,0.2226,0.2341,0.2055,0.1997,0.1887,0.1858,0.1593,0.1502,0.224,0.2241,0.2241,0.2241,0,0.1328,0.1392,0.1499,0.1644,0.1699,0.1795,0.1995,0.2123,0.2254,0.2475,0.2536,0.2667,0.2676,0.2568,0.2505,0.232,0.2036,0.2097,0.1925,0.1848,0.1364,0.1286,0.1151,0.1065,0.1868,0.1864,0.1861,0,0.1339,0.1387,0.1545,0.1621,0.1692,0.1843,0.197,0.2139,0.2296,0.2576,0.2707,0.2778,0.2874,0.2679,0.2372,0.2105,0.1916,0.1752,0.1685,0.1347,0.1219,0.1176,0.1113,0.1537,0.1531,0.1527,0.1524,0,0.136,0.1406,0.1507,0.1652,0.1784,0.1954,0.2151,0.2293,0.2536,0.273,0.2995,0.3095,0.2898,0.2617,0.2188,0.1962,0.1542,0.1649,0.1388,0.1037,0.0902,0.0785,0.1496,0.1485,0.1489,0.1491,0.1493,0.1495,0.1375,0.1436,0.1558,0.1702,0.186,0.2076,0.224,0.247,0.2742,0.307,0.3165,0.3334,0.2826,0.2256,0.1914,0.1096,0.1268,0.085,0.0805,0.0807,0.0675,0.1256,0.1123,0.1125,0.1126,0.1128,0.1129,0,0.1389,0.1469,0.1604,0.1796,0.1976,0.2065,0.2379,0.2566,0.2889,0.3159,0.3375,0.3163,0.2529,0.1877,0.0817,0.0335,0.0228,0.0076,-0.0011,-0.0011,0.0554,0.0481,0.0097,0.0097,0.0098,0.0098,0.0098,0.0099,0.1404,0.1515,0.159,0.1859,0.2012,0.2285,0.2477,0.2752,0.2994,0.3234,0.3293,0.3321,0.2666,0.097,-0.021,-0.0431,-0.0644,-0.0735,-0.0759,-0.0431,-0.0363,-0.0297,-0.0392,-0.0953,-0.0954,-0.1335,-0.1339,-0.1343]}],[{"header":{"parameterUnit":"m.s-1","parameterCategory":2,"la1":30.2991,"la2":30.254,"lo1":-89.0895,"lo2":-89.0444,"dy":0.0017,"dx":0.0017,"nx":28,"ny":28,"refTime":"2023-07-26T21:00:00:Z","depth":"2","parameterNumber":2,"parameterNumberName":"U-component_of_CURRENTS"},"data":[0,0,0,0,0,0,0,0,0,0,0,0,0,0,0,0,0,0,0,0,0,0,0,0,0,0,0,0,0,0,0,0,0,0,0,0,0,0,0,0,0,0,0,0,0,0,0,0,0,0,0,0,0,0,0,0,0,0,0.3166,0.3166,0,0.3125,0.3125,0.3124,0.3244,0.3247,0.3251,0.3255,0.3343,0.3342,0.3341,0,0,0,0,0,0,0,0,0,0,0,0,0,0.3006,0.3011,0.3166,0.3166,0.3165,0.3125,0.3125,0.3124,0.3243,0.3248,0.3252,0.3256,0.3343,0.3342,0.3341,0,0,0,0,0,0,0,0,0,0,0,0,0,0.3032,0.3012,0.3166,0.322,0.3224,0.3126,0.3125,0.3124,0.3242,0.3248,0.3253,0.3258,0.3344,0.3342,0.3341,0.3221,0,0,0.3336,0.3335,0,0,0,0,0,0,0,0,0.3031,0.3039,0.3212,0.3216,0.3221,0.3195,0.3101,0.3163,0.3241,0.3235,0.3255,0.3261,0.3301,0.3303,0.3282,0.3225,0.3229,0.3336,0.3335,0.3334,0.3333,0,0,0,0,0,0,0,0.303,0.3039,0.315,0.3211,0.3216,0.3128,0.3142,0.3111,0.3241,0.3236,0.3245,0.3238,0.3305,0.3283,0.3285,0.323,0.3336,0.3334,0.3333,0.3333,0.3423,0.3426,0,0,0,0,0,0,0.3047,0.3039,0.3152,0.3149,0.3137,0.3128,0.3143,0.3198,0.3238,0.3249,0.3234,0.3244,0.3283,0.3287,0.3289,0.347,0.3334,0.3332,0.3332,0.342,0.3424,0.3427,0,0,0,0,0,0,0.3045,0.306,0.3153,0.3088,0.3095,0.3128,0.3187,0.3194,0.3234,0.3235,0.3249,0.3274,0.3287,0.3291,0.3319,0.3463,0.3332,0.333,0.3416,0.3421,0.3426,0.3628,0,0,0,0,0,0,0.3041,0.3061,0.3108,0.3092,0.3099,0.3132,0.3182,0.3189,0.3218,0.3233,0.3272,0.3283,0.3292,0.3322,0.3318,0.3459,0.3329,0.3411,0.3418,0.3424,0.3617,0.3639,0.3658,0,0,0,0,0,0.3037,0.3032,0.3113,0.3125,0.3167,0.3132,0.3127,0.3164,0.3215,0.3224,0.3266,0.3285,0.3363,0.3319,0.3315,0.346,0.3408,0.3416,0.3424,0.3608,0.3635,0.3658,0,0,0,0,0,0,0.2935,0.3044,0.3131,0.3156,0.3182,0.3154,0.3141,0.3179,0.3209,0.3238,0.3269,0.328,0.3382,0.3354,0.3307,0.3505,0.3411,0.3418,0.3553,0.3578,0.3598,0.3616,0.3328,0,0,0,0,0,0.2953,0.3029,0.3082,0.311,0.3126,0.3153,0.3148,0.318,0.3193,0.3215,0.3269,0.3325,0.3389,0.3429,0.3453,0.3505,0.3468,0.3612,0.3633,0.3651,0.3663,0.375,0.378,0.3452,0.3452,0.3452,0,0,0.2932,0.2987,0.304,0.3101,0.3123,0.3171,0.3165,0.3159,0.3246,0.3212,0.3346,0.3377,0.3412,0.3519,0.3567,0.3528,0.3708,0.366,0.3676,0.3678,0.3761,0.3793,0.3822,0.3457,0.3456,0.3456,0,0,0.2905,0.2975,0.3054,0.308,0.3128,0.315,0.3171,0.3207,0.3279,0.336,0.3412,0.3508,0.3578,0.3663,0.3707,0.3831,0.3806,0.3878,0.4013,0.41,0.4128,0.4152,0.4074,0.409,0.3902,0.3903,0.3903,0,0.2936,0.2997,0.3047,0.3104,0.3132,0.317,0.3229,0.3288,0.3349,0.3427,0.3441,0.3632,0.3662,0.3833,0.3917,0.3889,0.3875,0.3923,0.413,0.4153,0.4175,0.4089,0.4105,0.3914,0.3912,0.3911,0.391,0,0.294,0.3025,0.3029,0.3192,0.3222,0.323,0.3336,0.3419,0.3517,0.3606,0.3789,0.3828,0.3956,0.4018,0.4016,0.4222,0.4133,0.4138,0.4071,0.4221,0.4118,0.4131,0.3929,0.3925,0.3922,0.3919,0,0,0.2973,0.3061,0.3074,0.3167,0.3257,0.3283,0.3435,0.358,0.3726,0.3839,0.4023,0.4175,0.4219,0.4268,0.4301,0.4396,0.4524,0.4361,0.4361,0.4286,0.4617,0.4421,0.4412,0.4596,0.4602,0.4606,0.4456,0,0.3011,0.3117,0.3148,0.328,0.3348,0.3431,0.358,0.3724,0.3865,0.405,0.4159,0.4333,0.4315,0.4408,0.4504,0.4554,0.4579,0.4556,0.4478,0.4471,0.4288,0.4431,0.4147,0.3983,0.4467,0.4469,0.4471,0,0.3025,0.3092,0.3222,0.3374,0.3417,0.3528,0.3753,0.3888,0.4137,0.4249,0.4423,0.4505,0.4686,0.4635,0.4755,0.4755,0.4694,0.4683,0.4677,0.444,0.4304,0.3926,0.3986,0.449,0.4488,0.4487,0.4486,0,0.301,0.3144,0.3253,0.3296,0.3486,0.3605,0.3733,0.3978,0.4116,0.4399,0.4513,0.471,0.4809,0.4857,0.4872,0.4836,0.4949,0.4872,0.4584,0.456,0.427,0.4215,0.4895,0.4895,0.4895,0.4896,0.4896,0,0.3025,0.3106,0.3272,0.334,0.3491,0.3644,0.3878,0.4021,0.4269,0.4439,0.4625,0.4757,0.4892,0.4972,0.4935,0.4823,0.4989,0.4614,0.4557,0.4318,0.4273,0.4687,0.4665,0.489,0.4891,0.4892,0.4893,0,0.3003,0.3106,0.323,0.3434,0.3501,0.3632,0.39,0.4053,0.4304,0.4518,0.4609,0.4823,0.4871,0.4914,0.4961,0.4854,0.4805,0.4691,0.4329,0.4232,0.429,0.428,0.4292,0.4285,0.4279,0.4274,0.427,0,0.3023,0.3069,0.3262,0.3315,0.3417,0.3631,0.3762,0.4043,0.4192,0.4538,0.46,0.4733,0.4708,0.4684,0.4593,0.4417,0.457,0.4055,0.3927,0.4309,0.4252,0.4251,0.4249,0.3566,0.3557,0.3549,0.3543,0,0.301,0.3068,0.3169,0.3251,0.3387,0.3539,0.3756,0.3851,0.418,0.4276,0.4385,0.4392,0.4369,0.4095,0.3964,0.3853,0.408,0.3874,0.4473,0.3776,0.3619,0.3564,0.3588,0.3472,0.3479,0.3484,0.3488,0.3491,0.3029,0.3048,0.3145,0.3171,0.3305,0.3413,0.3522,0.3626,0.3732,0.3806,0.3977,0.3836,0.3873,0.3411,0.3307,0.326,0.3446,0.3323,0.3351,0.3386,0.3343,0.3187,0.294,0.2944,0.2947,0.295,0.2953,0,0.3043,0.3041,0.3034,0.3121,0.3133,0.3316,0.3479,0.3447,0.3397,0.3386,0.3318,0.2956,0.2746,0.2809,0.2594,0.2547,0.2571,0.2466,0.2511,0.2581,0.2644,0.2568,0.1956,0.1952,0.1949,0.1947,0,0,0.3116,0.306,0.2953,0.29,0.3003,0.312,0.3218,0.3021,0.2954,0.2613,0.2494,0.2565,0.2704,0.2281,0.2229,0.2075,0.2317,0.1993,0.2798,0.2923,0.2981,0.3142,0.3104,0,0,0,0,0]},{"header":{"parameterUnit":"m.s-1","parameterCategory":2,"la1":30.2991,"la2":30.254,"lo1":-89.0895,"lo2":-89.0444,"dy":0.0017,"dx":0.0017,"nx":28,"ny":28,"refTime":"2023-07-26T21:00:00:Z","depth":"2","parameterNumber":3,"parameterNumberName":"V-component_of_CURRENTS"},"data":[0,0,0,0,0,0,0,0,0,0,0,0,0,0,0,0,0,0,0,0,0,0,0,0,0,0,0,0,0,0,0,0,0,0,0,0,0,0,0,0,0,0,0,0,0,0,0,0,0,0,0,0,0,0,0,0,0,0,-0.0093,-0.0094,0,-0.0176,-0.0177,-0.0178,-0.0271,-0.0272,-0.0273,-0.0275,-0.05,-0.0504,-0.0509,0,0,0,0,0,0,0,0,0,0,0,0,0,-0.0049,-0.0049,-0.0093,-0.0094,-0.0095,-0.0175,-0.0177,-0.0178,-0.0271,-0.0272,-0.0274,-0.0275,-0.0498,-0.0504,-0.051,0,0,0,0,0,0,0,0,0,0,0,0,0,-0.0094,-0.0049,-0.0093,-0.015,-0.0156,-0.0175,-0.0177,-0.0178,-0.027,-0.0272,-0.0274,-0.0276,-0.0496,-0.0503,-0.051,-0.0517,0,0,-0.0533,-0.0536,0,0,0,0,0,0,0,0,-0.0092,-0.0096,-0.0141,-0.0146,-0.0153,-0.0214,-0.0244,-0.0298,-0.027,-0.0228,-0.0275,-0.0277,-0.0415,-0.0429,-0.044,-0.0528,-0.0537,-0.0533,-0.0538,-0.0541,-0.0543,0,0,0,0,0,0,0,-0.0088,-0.0093,-0.0127,-0.0142,-0.0149,-0.0183,-0.0191,-0.0254,-0.0314,-0.0232,-0.0239,-0.0245,-0.042,-0.0433,-0.0447,-0.0541,-0.0533,-0.0539,-0.0544,-0.0547,-0.0724,-0.0724,0,0,0,0,0,0,-0.0072,-0.009,-0.0125,-0.013,-0.0125,-0.0182,-0.0191,-0.0193,-0.031,-0.0328,-0.0243,-0.0249,-0.0419,-0.0438,-0.0455,-0.0546,-0.0541,-0.0547,-0.0552,-0.0723,-0.0724,-0.0724,0,0,0,0,0,0,-0.007,-0.0074,-0.0121,-0.0111,-0.0119,-0.018,-0.0182,-0.0194,-0.0226,-0.0317,-0.0339,-0.0266,-0.0422,-0.0445,-0.0508,-0.0553,-0.0551,-0.0557,-0.0723,-0.0723,-0.0724,-0.0679,0,0,0,0,0,0,-0.0069,-0.0073,-0.006,-0.0109,-0.0119,-0.0136,-0.018,-0.0194,-0.0226,-0.0235,-0.0343,-0.0364,-0.0425,-0.0497,-0.0515,-0.0563,-0.0563,-0.0722,-0.0723,-0.0724,-0.068,-0.0678,-0.0676,0,0,0,0,0,-0.0067,-0.0024,-0.0059,-0.0063,-0.0103,-0.0136,-0.0144,-0.0195,-0.0225,-0.0233,-0.0297,-0.0362,-0.0516,-0.0501,-0.0524,-0.0574,-0.0722,-0.0723,-0.0724,-0.0681,-0.0678,-0.0676,0,0,0,0,0,0,0.0012,-0.0031,-0.007,-0.0043,-0.0096,-0.0151,-0.0145,-0.0194,-0.0248,-0.026,-0.0353,-0.0378,-0.0458,-0.0507,-0.0489,-0.0625,-0.0636,-0.0641,-0.0596,-0.0594,-0.0592,-0.0541,-0.0569,0,0,0,0,0,0.0032,0.0035,-0.0021,-0.001,-0.0022,-0.0091,-0.0108,-0.0154,-0.0209,-0.0235,-0.032,-0.0401,-0.0473,-0.0523,-0.059,-0.0653,-0.065,-0.0703,-0.0701,-0.0699,-0.0671,-0.0686,-0.0682,-0.0727,-0.0727,-0.0727,0,0,0.005,0.0038,0.003,0.0004,-0.0034,-0.0048,-0.0106,-0.0131,-0.0165,-0.0251,-0.0319,-0.0397,-0.0484,-0.0559,-0.0602,-0.0611,-0.0684,-0.0701,-0.0698,-0.0671,-0.0687,-0.0682,-0.0678,-0.0727,-0.0727,-0.0727,0,0,0.0092,0.0091,0.0096,0.0075,0.003,-0.001,-0.002,-0.0095,-0.0145,-0.0214,-0.0288,-0.037,-0.0492,-0.0559,-0.0607,-0.0629,-0.0668,-0.0678,-0.0638,-0.0654,-0.065,-0.0646,-0.0622,-0.0616,-0.0683,-0.0683,-0.0683,0,0.0094,0.0127,0.009,0.0101,0.0096,0.0009,0.001,-0.0045,-0.0145,-0.0179,-0.0232,-0.0388,-0.0488,-0.0552,-0.0581,-0.0628,-0.062,-0.0642,-0.0648,-0.0645,-0.0642,-0.0618,-0.0613,-0.0681,-0.0681,-0.0681,-0.0682,0,0.0153,0.0167,0.0182,0.0158,0.0142,0.0142,0.0066,0.0015,-0.0064,-0.0133,-0.0225,-0.0339,-0.0431,-0.0497,-0.0559,-0.0601,-0.0596,-0.0638,-0.0647,-0.0634,-0.0611,-0.0606,-0.0678,-0.0679,-0.0679,-0.068,0,0,0.0171,0.0203,0.0208,0.0212,0.0184,0.0171,0.013,0.0069,0.0044,-0.008,-0.0103,-0.0274,-0.0341,-0.0396,-0.049,-0.0524,-0.053,-0.0575,-0.0577,-0.0535,-0.0524,-0.056,-0.0558,-0.0572,-0.0571,-0.0571,-0.0511,0,0.0209,0.0258,0.0263,0.0283,0.03,0.0243,0.0215,0.0145,0.0066,0.0021,-0.0098,-0.0165,-0.0301,-0.0346,-0.0406,-0.0487,-0.0516,-0.0539,-0.0555,-0.0554,-0.0577,-0.0554,-0.0522,-0.047,-0.0506,-0.0505,-0.0505,0,0.0263,0.0302,0.0337,0.0354,0.0355,0.0338,0.0305,0.0268,0.019,0.0137,0.0061,-0.0023,-0.0104,-0.0212,-0.0324,-0.0329,-0.0425,-0.0485,-0.0485,-0.0525,-0.0582,-0.0494,-0.0459,-0.0496,-0.0497,-0.0498,-0.0498,0,0.031,0.0349,0.0384,0.0396,0.0395,0.0378,0.0355,0.0286,0.0282,0.0221,0.0239,0.0117,0.0083,-0.0042,-0.0204,-0.0264,-0.0276,-0.0379,-0.0486,-0.0488,-0.0464,-0.0466,-0.0442,-0.0442,-0.0442,-0.0442,-0.0443,0,0.037,0.0398,0.0401,0.043,0.0478,0.0425,0.0436,0.041,0.0383,0.0439,0.03,0.0359,0.0121,0.0072,-0.0101,-0.0246,-0.0203,-0.0451,-0.0476,-0.0449,-0.045,-0.0486,-0.0492,-0.044,-0.0441,-0.0441,-0.0441,0,0.0412,0.0414,0.0469,0.0485,0.0502,0.052,0.0532,0.0542,0.0507,0.0596,0.06,0.0547,0.0465,0.026,0.0089,-0.0102,-0.024,-0.0305,-0.0238,-0.026,-0.0468,-0.0472,-0.0435,-0.0436,-0.0437,-0.0437,-0.0438,0,0.0428,0.047,0.0538,0.0598,0.0607,0.0628,0.0659,0.0617,0.0659,0.075,0.0836,0.0776,0.0774,0.052,0.0175,-0.0107,-0.0178,-0.0271,-0.0428,-0.0439,-0.0468,-0.0471,-0.0474,-0.0361,-0.036,-0.036,-0.036,0,0.0493,0.0511,0.0568,0.0712,0.076,0.0825,0.0867,0.0938,0.094,0.107,0.1252,0.1265,0.0955,0.0666,0.021,0.001,-0.024,-0.0283,-0.0269,-0.0391,-0.0371,-0.0399,-0.0404,-0.0359,-0.0359,-0.0359,-0.0359,-0.0359,0.0519,0.0581,0.067,0.0828,0.0902,0.1009,0.1082,0.1192,0.1352,0.1506,0.1517,0.152,0.112,0.0508,0.0191,-0.0201,-0.0252,-0.0407,-0.0405,-0.0405,-0.043,-0.0416,-0.0413,-0.0413,-0.0414,-0.0414,-0.0414,0,0.0557,0.0639,0.0792,0.0931,0.1059,0.106,0.1222,0.1328,0.1589,0.1686,0.1786,0.1428,0.1066,0.0628,0.0039,-0.0316,-0.0344,-0.0408,-0.0371,-0.0371,-0.0372,-0.0396,-0.0369,-0.0369,-0.0369,-0.037,0,0,0.0553,0.0694,0.0816,0.1045,0.1135,0.124,0.1335,0.1589,0.1716,0.1847,0.1804,0.1619,0.1134,0.0721,0.0256,-0.0044,-0.012,-0.01,-0.0108,-0.001,-0.0005,-0.0352,-0.0387,0,0,0,0,0]}],[{"header":{"parameterUnit":"m.s-1","parameterCategory":2,"la1":30.2991,"la2":30.254,"lo1":-89.0895,"lo2":-89.0444,"dy":0.0017,"dx":0.0017,"nx":28,"ny":28,"refTime":"2023-07-26T21:00:00:Z","depth":"4","parameterNumber":2,"parameterNumberName":"U-component_of_CURRENTS"},"data":[0,0,0,0,0,0,0,0,0,0,0,0,0,0,0,0,0,0,0,0,0,0,0,0,0,0,0,0,0,0,0,0,0,0,0,0,0,0,0,0,0,0,0,0,0,0,0,0,0,0,0,0,0,0,0,0,0,0,0.1132,0.1133,0,0.1211,0.1212,0.1212,0.1272,0.1273,0.1274,0.1275,0.1292,0.1292,0.1291,0,0,0,0,0,0,0,0,0,0,0,0,0,0.1116,0.1115,0.1132,0.1134,0.1135,0.1211,0.1212,0.1212,0.1272,0.1273,0.1274,0.1276,0.1293,0.1292,0.1291,0,0,0,0,0,0,0,0,0,0,0,0,0,0.1147,0.1115,0.1132,0.1178,0.1183,0.1211,0.1212,0.1212,0.1272,0.1273,0.1275,0.1276,0.1293,0.1292,0.1291,0.1255,0,0,0.1289,0.1289,0,0,0,0,0,0,0,0,0.1145,0.1146,0.117,0.1175,0.1181,0.1238,0.1213,0.1225,0.1271,0.1232,0.1275,0.1277,0.1271,0.1272,0.1277,0.1256,0.1257,0.1289,0.1288,0.1288,0.1288,0,0,0,0,0,0,0,0.1142,0.1144,0.1158,0.1171,0.1178,0.1224,0.1228,0.1216,0.1236,0.1236,0.1242,0.1259,0.1273,0.1277,0.1277,0.1257,0.1289,0.1288,0.1288,0.1287,0.1346,0.1348,0,0,0,0,0,0,0.1137,0.1141,0.1156,0.1161,0.1172,0.1223,0.1228,0.1214,0.1238,0.1246,0.1257,0.1261,0.1278,0.1278,0.1278,0.1345,0.1288,0.1287,0.1287,0.1344,0.1346,0.1348,0,0,0,0,0,0,0.1136,0.1136,0.1152,0.1159,0.1165,0.1221,0.1205,0.1215,0.127,0.1256,0.1262,0.131,0.1279,0.1279,0.1318,0.1342,0.1287,0.1286,0.1341,0.1345,0.1347,0.141,0,0,0,0,0,0,0.1134,0.1134,0.1142,0.1158,0.1165,0.119,0.1205,0.1215,0.1278,0.1285,0.1302,0.1302,0.128,0.132,0.1317,0.134,0.1286,0.1339,0.1343,0.1346,0.1405,0.1414,0.1422,0,0,0,0,0,0.1133,0.1134,0.1141,0.1145,0.1166,0.1192,0.1199,0.1242,0.1279,0.1299,0.1329,0.1305,0.1342,0.1321,0.1318,0.1341,0.1337,0.1342,0.1346,0.1401,0.1412,0.1422,0,0,0,0,0,0,0.1117,0.1141,0.1149,0.1153,0.1181,0.1205,0.1236,0.1271,0.1311,0.1331,0.1326,0.1328,0.1374,0.1354,0.1331,0.1373,0.1336,0.1341,0.1379,0.139,0.1398,0.1433,0.1285,0,0,0,0,0,0.1118,0.1137,0.1154,0.1163,0.1177,0.1217,0.1245,0.1273,0.1305,0.1328,0.1341,0.136,0.138,0.1386,0.1393,0.1407,0.1416,0.1423,0.1432,0.1439,0.1468,0.1502,0.1516,0.1363,0.1363,0.1363,0,0,0.1114,0.1134,0.1143,0.1166,0.119,0.1212,0.1237,0.1285,0.1318,0.1318,0.1373,0.1395,0.1397,0.1423,0.144,0.1413,0.1489,0.1445,0.1451,0.1477,0.1508,0.1523,0.1536,0.1366,0.1366,0.1365,0,0,0.1116,0.1132,0.1149,0.1174,0.1224,0.1243,0.127,0.1311,0.1347,0.1394,0.1417,0.1471,0.1476,0.1495,0.1501,0.1564,0.1543,0.1559,0.1617,0.1649,0.1662,0.1673,0.1707,0.1721,0.1551,0.1552,0.1552,0,0.1122,0.1131,0.116,0.1182,0.1216,0.1263,0.129,0.132,0.1377,0.142,0.1421,0.1521,0.1513,0.1583,0.1602,0.1584,0.16,0.1571,0.166,0.1671,0.1682,0.1714,0.1728,0.1555,0.1555,0.1554,0.1554,0,0.1122,0.1149,0.1164,0.1205,0.124,0.1277,0.1316,0.1368,0.1424,0.1463,0.1566,0.1588,0.166,0.1653,0.1641,0.1723,0.1711,0.1673,0.163,0.1701,0.173,0.1744,0.156,0.1559,0.1558,0.1557,0,0,0.1088,0.1155,0.1165,0.1198,0.1265,0.129,0.1353,0.1426,0.1499,0.1559,0.166,0.1711,0.177,0.1787,0.1798,0.1815,0.189,0.1779,0.1779,0.1809,0.1972,0.1832,0.1833,0.1863,0.1866,0.1868,0.1962,0,0.109,0.1135,0.1177,0.1236,0.126,0.1334,0.139,0.1467,0.1543,0.1641,0.1716,0.1805,0.1805,0.186,0.1892,0.1886,0.1931,0.1869,0.1904,0.1906,0.1768,0.1846,0.1877,0.1972,0.1976,0.1978,0.198,0,0.1068,0.1114,0.1167,0.1265,0.1286,0.1334,0.1463,0.1528,0.1663,0.1734,0.1865,0.1921,0.2016,0.1986,0.2066,0.2027,0.2032,0.2016,0.2018,0.188,0.1791,0.1888,0.2005,0.2003,0.2001,0.1999,0.1998,0,0.1017,0.1104,0.1158,0.1188,0.1298,0.1359,0.1435,0.1564,0.1642,0.1818,0.1903,0.2027,0.212,0.2135,0.2132,0.2108,0.2183,0.2135,0.2035,0.2025,0.2093,0.208,0.2218,0.2218,0.2218,0.2218,0.2217,0,0.099,0.1034,0.1146,0.1175,0.1264,0.135,0.1471,0.1572,0.1723,0.1826,0.1971,0.2074,0.2163,0.2212,0.2178,0.2149,0.2236,0.2077,0.2046,0.2117,0.2106,0.2103,0.2089,0.2221,0.222,0.222,0.2219,0,0.0917,0.099,0.1056,0.1187,0.124,0.1305,0.1476,0.1554,0.1723,0.1868,0.1931,0.2134,0.2203,0.2244,0.2276,0.2215,0.2171,0.2146,0.2242,0.221,0.1988,0.1977,0.2053,0.2049,0.2046,0.2043,0.204,0,0.0883,0.0911,0.1049,0.11,0.1168,0.1287,0.1367,0.1541,0.1628,0.1876,0.1932,0.2096,0.2198,0.2159,0.22,0.2156,0.2128,0.212,0.205,0.2013,0.1976,0.1969,0.1962,0.2035,0.2034,0.2033,0.2032,0,0.0828,0.0884,0.0947,0.1041,0.1129,0.1218,0.1349,0.1402,0.1606,0.1765,0.1897,0.196,0.2063,0.2092,0.2091,0.2044,0.2114,0.2084,0.2091,0.2025,0.1992,0.1957,0.1954,0.202,0.2022,0.2023,0.2024,0,0.0795,0.081,0.0896,0.098,0.1066,0.1118,0.1207,0.1322,0.1432,0.1695,0.173,0.1895,0.2051,0.2037,0.2006,0.197,0.1941,0.1876,0.1893,0.1907,0.1808,0.1742,0.1693,0,0,0,0,0,0.0736,0.0754,0.083,0.0893,0.0965,0.1025,0.1178,0.1272,0.1464,0.1511,0.1618,0.1691,0.1748,0.1839,0.1767,0.1912,0.1919,0.182,0.1845,0.1955,0.1969,0.1861,0,0,0,0,0,0,0.0695,0.0749,0.0796,0.0809,0.0831,0.0901,0.0994,0.1129,0.1178,0.1381,0.1422,0.1574,0.1642,0.1744,0.1725,0.1741,0.1722,0.1911,0.1906,0.1947,0.196,0.197,0.1864,0,0,0,0,0]},{"header":{"parameterUnit":"m.s-1","parameterCategory":2,"la1":30.2991,"la2":30.254,"lo1":-89.0895,"lo2":-89.0444,"dy":0.0017,"dx":0.0017,"nx":28,"ny":28,"refTime":"2023-07-26T21:00:00:Z","depth":"4","parameterNumber":3,"parameterNumberName":"V-component_of_CURRENTS"},"data":[0,0,0,0,0,0,0,0,0,0,0,0,0,0,0,0,0,0,0,0,0,0,0,0,0,0,0,0,0,0,0,0,0,0,0,0,0,0,0,0,0,0,0,0,0,0,0,0,0,0,0,0,0,0,0,0,0,0,0.0278,0.0277,0,0.0196,0.0195,0.0194,0.0168,0.0169,0.0169,0.017,0.0088,0.0085,0.0082,0,0,0,0,0,0,0,0,0,0,0,0,0,0.024,0.0242,0.0278,0.0277,0.0276,0.0196,0.0195,0.0194,0.0168,0.0169,0.0169,0.017,0.0088,0.0085,0.0082,0,0,0,0,0,0,0,0,0,0,0,0,0,0.0216,0.0242,0.0278,0.0255,0.0252,0.0197,0.0195,0.0194,0.0168,0.0169,0.017,0.017,0.0089,0.0086,0.0082,0.0041,0,0,0.0069,0.0067,0,0,0,0,0,0,0,0,0.0218,0.0217,0.0259,0.0257,0.0253,0.0195,0.0151,0.0143,0.0168,0.0198,0.017,0.0171,0.0124,0.0117,0.0097,0.0037,0.0033,0.0069,0.0066,0.0065,0.0064,0,0,0,0,0,0,0,0.0219,0.022,0.0244,0.0258,0.0255,0.019,0.0189,0.0149,0.0156,0.0196,0.0194,0.0187,0.0122,0.0101,0.0095,0.0032,0.0069,0.0065,0.0063,0.0061,-0.0065,-0.0066,0,0,0,0,0,0,0.0242,0.0222,0.0247,0.0242,0.0239,0.0191,0.0189,0.0211,0.0157,0.0149,0.0187,0.0186,0.0108,0.01,0.0092,0.007,0.0065,0.0061,0.0059,-0.0064,-0.0065,-0.0066,0,0,0,0,0,0,0.0242,0.0246,0.025,0.0229,0.0226,0.0192,0.0216,0.0209,0.0191,0.015,0.0143,0.0176,0.0108,0.0098,0.0064,0.0066,0.0059,0.0055,-0.0063,-0.0065,-0.0066,0.0006,0,0,0,0,0,0,0.0241,0.0247,0.0265,0.0232,0.0228,0.0227,0.0215,0.0207,0.0186,0.0185,0.0138,0.0131,0.0108,0.0071,0.006,0.006,0.0052,-0.0062,-0.0064,-0.0065,0.0005,0.0007,0.0009,0,0,0,0,0,0.0241,0.0265,0.0267,0.0269,0.0257,0.0228,0.0219,0.0194,0.0185,0.018,0.0149,0.0133,0.0052,0.0067,0.0055,0.0053,-0.0061,-0.0063,-0.0065,0.0004,0.0007,0.0009,0,0,0,0,0,0,0.0258,0.0263,0.0265,0.0292,0.0267,0.0224,0.0219,0.0194,0.0162,0.0167,0.0123,0.0114,0.0081,0.005,0.0067,0.0007,-0.0009,-0.0014,0.0047,0.0049,0.0052,0.0053,0.0049,0,0,0,0,0,0.0272,0.0295,0.0277,0.0296,0.0291,0.0253,0.0236,0.022,0.0189,0.0175,0.014,0.01,0.0059,0.0044,0.0003,-0.0027,-0.0076,-0.004,-0.0037,-0.0035,-0.0045,-0.0131,-0.0137,-0.0073,-0.0073,-0.0073,0,0,0.0287,0.0289,0.0305,0.03,0.0283,0.0276,0.0245,0.0231,0.0221,0.0171,0.0149,0.0104,0.005,0.002,0.0003,-0.0,-0.0074,-0.0038,-0.0035,-0.0047,-0.0134,-0.014,-0.0146,-0.0075,-0.0074,-0.0074,0,0,0.0312,0.0331,0.035,0.0336,0.0316,0.0293,0.0291,0.0254,0.0239,0.0208,0.0167,0.012,0.0068,0.0025,-0.0003,-0.0021,-0.0064,-0.0029,-0.0008,-0.0091,-0.0096,-0.0102,-0.0142,-0.0153,-0.0021,-0.0021,-0.0021,0,0.0324,0.0357,0.0345,0.0349,0.0343,0.0306,0.0312,0.0286,0.0238,0.0222,0.0215,0.0107,0.0065,0.001,0.0008,-0.0015,-0.0055,-0.0004,-0.0086,-0.0093,-0.01,-0.0141,-0.0153,-0.0018,-0.0018,-0.0019,-0.0019,0,0.0356,0.0378,0.0386,0.039,0.0376,0.0378,0.0348,0.0332,0.0308,0.027,0.0213,0.0146,0.0082,0.006,0.0032,-0.0038,-0.0045,-0.0074,-0.0084,-0.0102,-0.0144,-0.0157,-0.0013,-0.0014,-0.0015,-0.0016,0,0,0.0391,0.041,0.0412,0.0427,0.0404,0.04,0.0389,0.0361,0.0353,0.0293,0.026,0.0176,0.0131,0.0092,0.0042,-0.003,-0.0102,-0.0063,-0.0069,-0.0087,-0.0256,-0.0219,-0.0231,-0.0142,-0.0144,-0.0147,-0.0253,0,0.0418,0.0452,0.0444,0.0469,0.0485,0.0456,0.0451,0.0417,0.0378,0.0336,0.0248,0.0198,0.0147,0.0123,0.0039,-0.0077,-0.014,-0.0069,-0.0251,-0.0256,-0.021,-0.0247,-0.0155,-0.0263,-0.0266,-0.0269,-0.027,0,0.0443,0.0468,0.0508,0.0528,0.0533,0.0541,0.053,0.052,0.0449,0.0416,0.0337,0.026,0.0148,0.011,-0.0095,-0.0044,-0.0143,-0.0232,-0.0238,-0.0245,-0.0247,-0.0255,-0.0296,-0.0294,-0.0292,-0.029,-0.0289,0,0.0474,0.0506,0.0549,0.0555,0.057,0.0588,0.0594,0.0548,0.0544,0.0465,0.044,0.0291,0.0229,0.0059,-0.0121,-0.0111,-0.0347,-0.0356,-0.0414,-0.0411,-0.0441,-0.0434,-0.0505,-0.0504,-0.0504,-0.0504,-0.0504,0,0.0501,0.0533,0.0579,0.0607,0.0663,0.0648,0.0686,0.0665,0.0625,0.0609,0.0492,0.0436,0.0209,0.0049,-0.0118,-0.0307,-0.0347,-0.0423,-0.045,-0.0404,-0.0392,-0.0448,-0.0441,-0.0508,-0.0507,-0.0506,-0.0506,0,0.0522,0.055,0.0607,0.0658,0.0684,0.0726,0.0772,0.0784,0.0745,0.0718,0.0695,0.0532,0.0329,0.0101,-0.0174,-0.0278,-0.0479,-0.0532,-0.0446,-0.0464,-0.048,-0.0468,-0.06,-0.06,-0.06,-0.06,-0.06,0,0.0534,0.057,0.0661,0.0704,0.0738,0.0806,0.085,0.0851,0.0854,0.077,0.0749,0.0566,0.0433,0.0082,-0.0155,-0.046,-0.0497,-0.057,-0.0549,-0.0484,-0.0497,-0.0485,-0.0472,-0.06,-0.06,-0.06,-0.06,0,0.056,0.0598,0.0655,0.0756,0.0825,0.0892,0.095,0.0964,0.0942,0.091,0.0784,0.0596,0.0376,0.0096,-0.0137,-0.036,-0.0513,-0.057,-0.0571,-0.0552,-0.0485,-0.0495,-0.0484,-0.06,-0.06,-0.06,-0.06,0,0.0585,0.0622,0.0705,0.0787,0.0874,0.0934,0.0974,0.0975,0.0981,0.0886,0.0843,0.0596,0.0452,0.0148,-0.0081,-0.0287,-0.0326,-0.0363,-0.0376,-0.0379,-0.0284,-0.0165,-0.0215,0,0,0,0,0,0.0596,0.0635,0.072,0.0801,0.0887,0.0941,0.1009,0.1031,0.1024,0.0947,0.0894,0.0682,0.0354,0.0205,0.0004,-0.0077,-0.0361,-0.0313,-0.041,-0.0598,-0.0598,-0.0522,0,0,0,0,0,0,0.0603,0.0677,0.0717,0.0802,0.0855,0.0946,0.0999,0.1,0.0957,0.0915,0.0735,0.0653,0.0322,0.0449,-0.0003,-0.0064,-0.0142,-0.0472,-0.0475,-0.0598,-0.0598,-0.0598,-0.052,0,0,0,0,0]}]]